EW5990 Weather Reports


time (UTC)temp
C
wind
direction
speed
KPH
gust
KPH
rain 1hr
cm
rain 24hr
cm
rain mn
cm
humidity
%
barometer
mb
20260504035545 14 180 4.8 6.4 0.00 0.00 0.00 47 1004.2
20260504035049 14 180 3.2 6.4 0.00 0.00 0.00 48 1004.2
20260504034558 15 180 3.2 6.4 0.00 0.00 0.00 49 1004.2
20260504034044 15 180 3.2 6.4 0.00 0.00 0.00 47 1004.3
20260504033545 15 180 3.2 6.4 0.00 0.00 0.00 47 1004.4
20260504033058 15 180 4.8 6.4 0.00 0.00 0.00 47 1004.4
20260504032548 15 180 3.2 6.4 0.00 0.00 0.00 46 1004.4
20260504032050 15 180 3.2 6.4 0.00 0.00 0.00 47 1004.4
20260504031601 15 180 3.2 6.4 0.00 0.00 0.00 48 1004.4
20260504031044 15 180 3.2 4.8 0.00 0.00 0.00 48 1004.4
20260504030544 15 180 3.2 4.8 0.00 0.00 0.00 46 1004.4
20260504030052 15 180 3.2 4.8 0.00 0.00 0.00 45 1004.4
20260504025545 16 180 3.2 4.8 0.00 0.00 0.00 44 1004.3
20260504025047 16 175 1.6 4.8 0.00 0.00 0.00 42 1004.3
20260504024550 16 177 1.6 6.4 0.00 0.00 0.00 42 1004.3
20260504024044 16 171 3.2 6.4 0.00 0.00 0.00 42 1004.2
20260504023545 16 170 1.6 6.4 0.00 0.00 0.00 43 1004.2
20260504023051 16 196 1.6 3.2 0.00 0.00 0.00 43 1004.2
20260504022547 16 196 1.6 3.2 0.00 0.00 0.00 42 1004.1
20260504022051 17 196 1.6 4.8 0.00 0.00 0.00 42 1004.2
20260504021552 17 241 1.6 6.4 0.00 0.00 0.00 40 1004.0
20260504021048 17 229 0.0 9.7 0.00 0.00 0.00 40 1004.0
20260504020548 17 240 3.2 9.7 0.00 0.00 0.00 40 1004.0
20260504015548 17 256 4.8 9.7 0.00 0.00 0.00 39 1003.9
20260504015048 17 280 3.2 9.7 0.00 0.00 0.00 40 1003.8
20260504014557 17 278 3.2 9.7 0.00 0.00 0.00 40 1003.8
20260504014044 17 277 3.2 11.3 0.00 0.00 0.00 40 1003.7
20260504013544 18 271 4.8 11.3 0.00 0.00 0.00 40 1003.7
20260504013053 18 302 4.8 17.7 0.00 0.00 0.00 39 1003.7
20260504012547 18 288 4.8 17.7 0.00 0.00 0.00 39 1003.7
20260504012045 18 293 9.7 17.7 0.00 0.00 0.00 39 1003.6
20260504011549 18 319 6.4 16.1 0.00 0.00 0.00 40 1003.6
20260504011044 18 286 6.4 12.9 0.00 0.00 0.00 40 1003.6
20260504010544 18 271 4.8 11.3 0.00 0.00 0.00 40 1003.6
20260504010052 18 349 4.8 14.5 0.00 0.00 0.00 40 1003.5
20260504005544 19 282 6.4 14.5 0.00 0.00 0.00 40 1003.5
20260504005044 19 283 3.2 9.7 0.00 0.00 0.00 39 1003.3
20260504004550 20 256 3.2 11.3 0.00 0.00 0.00 39 1003.4
20260504004049 20 287 3.2 11.3 0.00 0.00 0.00 38 1003.4
20260504003548 20 259 4.8 11.3 0.00 0.00 0.00 38 1003.3
20260504003051 20 286 3.2 11.3 0.00 0.00 0.00 38 1003.3
20260504002547 20 271 4.8 16.1 0.00 0.00 0.00 38 1003.3
20260504002048 20 283 6.4 16.1 0.00 0.00 0.00 37 1003.3
20260504001553 20 254 3.2 12.9 0.00 0.00 0.00 38 1003.3
20260504001044 20 315 6.4 14.5 0.00 0.00 0.00 36 1003.1
20260504000545 20 267 6.4 19.3 0.00 0.00 0.00 37 1003.1
20260504000054 21 286 8.0 19.3 0.00 0.00 0.00 37 1003.1
20260503235548 21 282 6.4 17.7 0.00 0.00 0.00 36 1003.0
20260503235044 21 271 8.0 16.1 0.00 0.00 0.00 35 1003.0
20260503234550 21 209 6.4 16.1 0.00 0.00 0.00 35 1002.9
20260503234049 21 267 9.7 19.3 0.00 0.00 0.00 35 1002.9
20260503233547 21 286 9.7 19.3 0.00 0.00 0.00 35 1003.0
20260503233050 21 291 12.9 19.3 0.00 0.00 0.00 35 1003.0
20260503232544 21 307 9.7 19.3 0.00 0.00 0.00 37 1003.0
20260503232044 21 296 9.7 19.3 0.00 0.00 0.00 36 1003.0
20260503231550 21 219 4.8 20.9 0.00 0.00 0.00 38 1002.9
20260503231044 21 300 9.7 27.4 0.00 0.00 0.00 36 1003.0
20260503230545 21 253 12.9 27.4 0.00 0.00 0.00 36 1003.2
20260503225544 21 252 11.3 22.5 0.00 0.00 0.00 36 1003.3
20260503225043 21 264 8.0 22.5 0.00 0.00 0.00 36 1003.2
20260503224555 21 214 14.5 22.5 0.00 0.00 0.00 37 1003.2
20260503224043 21 334 11.3 20.9 0.00 0.00 0.00 36 1003.2
20260503223546 21 294 4.8 22.5 0.00 0.00 0.00 39 1003.3
20260503223048 21 175 9.7 22.5 0.00 0.00 0.00 39 1003.3
20260503222545 21 286 9.7 22.5 0.00 0.00 0.00 38 1003.3
20260503222044 21 250 8.0 22.5 0.00 0.00 0.00 39 1003.1
20260503221550 21 249 11.3 24.1 0.00 0.00 0.00 40 1003.3
20260503221044 21 306 12.9 24.1 0.00 0.00 0.00 40 1003.4
20260503220544 21 302 12.9 22.5 0.00 0.00 0.00 39 1003.3
20260503220056 21 243 6.4 16.1 0.00 0.00 0.00 43 1003.3
20260503215543 21 304 4.8 17.7 0.00 0.00 0.00 41 1003.4
20260503215044 21 209 8.0 22.5 0.00 0.00 0.00 40 1003.4
20260503214550 21 242 9.7 22.5 0.00 0.00 0.00 41 1003.4
20260503214044 21 269 9.7 24.1 0.00 0.00 0.00 40 1003.5
20260503213542 21 272 9.7 24.1 0.00 0.00 0.00 39 1003.4
20260503213100 21 234 9.7 25.7 0.00 0.00 0.00 41 1003.5
20260503212543 21 190 4.8 25.7 0.00 0.00 0.00 42 1003.3
20260503212045 21 167 9.7 25.7 0.00 0.00 0.00 42 1003.4
20260503211611 21 218 9.7 25.7 0.00 0.00 0.00 42 1003.4
20260503211042 21 188 8.0 25.7 0.00 0.00 0.00 42 1003.4
20260503210546 21 184 8.0 27.4 0.00 0.00 0.00 41 1003.5
20260503210052 21 280 12.9 27.4 0.00 0.00 0.00 41 1003.5
20260503205544 21 188 9.7 24.1 0.00 0.00 0.00 42 1003.5
20260503205045 21 197 12.9 27.4 0.00 0.00 0.00 42 1003.6
20260503204552 21 182 12.9 27.4 0.00 0.00 0.00 44 1003.7
20260503204042 20 183 14.5 29.0 0.00 0.00 0.00 44 1003.6
20260503203545 21 184 9.7 29.0 0.00 0.00 0.00 43 1003.8
20260503203052 20 188 8.0 24.1 0.00 0.00 0.00 44 1003.9
20260503202546 20 210 12.9 22.5 0.00 0.00 0.00 43 1004.0
20260503202045 20 178 11.3 29.0 0.00 0.00 0.00 43 1004.1
20260503201551 20 181 9.7 29.0 0.00 0.00 0.00 44 1004.1
20260503201048 20 180 11.3 32.2 0.00 0.00 0.00 44 1004.4
20260503200543 20 187 14.5 32.2 0.00 0.00 0.00 43 1004.4
20260503200058 20 238 11.3 25.7 0.00 0.00 0.00 45 1004.3
20260503195542 20 207 16.1 25.7 0.00 0.00 0.00 44 1004.5
20260503195043 20 196 12.9 30.6 0.00 0.00 0.00 45 1004.4
20260503194601 19 173 14.5 30.6 0.00 0.00 0.00 45 1004.6
20260503194045 20 267 11.3 29.0 0.00 0.00 0.00 44 1004.7
20260503193544 20 181 9.7 24.1 0.00 0.00 0.00 48 1004.8
20260503193057 19 201 11.3 25.7 0.00 0.00 0.00 46 1004.8
20260503192544 19 277 12.9 30.6 0.00 0.00 0.00 45 1004.9
20260503192044 19 179 17.7 30.6 0.00 0.00 0.00 44 1004.9
20260503191549 19 223 16.1 25.7 0.00 0.00 0.00 46 1004.9
20260503191044 19 213 11.3 25.7 0.00 0.00 0.00 46 1005.0
20260503190545 19 226 12.9 30.6 0.00 0.00 0.00 45 1005.1
20260503190052 19 233 12.9 30.6 0.00 0.00 0.00 45 1005.0
20260503185544 19 167 12.9 24.1 0.00 0.00 0.00 45 1004.9
20260503185044 19 194 9.7 22.5 0.00 0.00 0.00 45 1005.0
20260503184600 19 207 11.3 27.4 0.00 0.00 0.00 45 1005.1
20260503184044 18 188 17.7 27.4 0.00 0.00 0.00 45 1005.1
20260503183544 18 196 11.3 24.1 0.00 0.00 0.00 48 1005.2
20260503183050 18 184 12.9 24.1 0.00 0.00 0.00 45 1005.3
20260503182543 18 186 11.3 25.7 0.00 0.00 0.00 46 1005.1
20260503182044 18 214 14.5 25.7 0.00 0.00 0.00 48 1005.2
20260503181608 18 205 14.5 25.7 0.00 0.00 0.00 47 1005.2
20260503181044 18 207 12.9 25.7 0.00 0.00 0.00 47 1005.3
20260503180545 18 214 12.9 29.0 0.00 0.00 0.00 46 1005.5
20260503180112 17 207 14.5 29.0 0.00 0.00 0.00 46 1005.3
20260503175544 18 194 12.9 30.6 0.00 0.00 0.00 47 1005.4
20260503175044 17 236 16.1 30.6 0.00 0.00 0.00 47 1005.4
20260503174600 17 184 14.5 30.6 0.00 0.00 0.00 48 1005.4
20260503174048 17 213 20.9 30.6 0.00 0.00 0.00 47 1005.5
20260503173544 17 187 12.9 38.6 0.00 0.00 0.00 48 1005.6
20260503173059 17 229 17.7 38.6 0.00 0.00 0.00 48 1005.6
20260503172546 17 181 19.3 35.4 0.00 0.00 0.00 48 1005.7
20260503172048 17 236 16.1 32.2 0.00 0.00 0.00 49 1005.8
20260503171553 17 194 12.9 33.8 0.00 0.00 0.00 50 1005.9
20260503171048 16 221 17.7 35.4 0.00 0.00 0.00 48 1005.9
20260503170548 16 196 20.9 51.5 0.00 0.00 0.00 48 1005.9
20260503150547 13 178 9.7 30.6 0.00 0.00 0.00 66 1007.6
20260503150106 13 185 12.9 25.7 0.00 0.00 0.00 66 1007.7
20260503131045 10 176 17.7 30.6 0.00 0.00 0.00 72 1008.6
20260503130546 10 169 14.5 45.1 0.00 0.00 0.00 73 1008.7
20260503110544 8 211 9.7 19.3 0.00 0.00 0.00 59 1009.6
20260503081549 9 217 11.3 22.5 0.00 0.00 0.00 51 1010.4
20260503081045 9 192 9.7 22.5 0.00 0.00 0.00 51 1010.5
20260503080546 9 186 9.7 22.5 0.00 0.00 0.00 51 1010.5
20260503080105 9 186 9.7 19.3 0.00 0.00 0.00 51 1010.6
20260503072545 8 231 8.0 16.1 0.00 0.00 0.00 52 1010.8
20260503072043 8 180 8.0 16.1 0.00 0.00 0.00 52 1010.8
20260503071601 8 203 8.0 16.1 0.00 0.00 0.00 52 1010.9
20260503071050 8 202 8.0 16.1 0.00 0.00 0.00 52 1010.9
20260503070543 8 190 8.0 16.1 0.00 0.00 0.00 52 1010.9
20260503055046 8 180 11.3 20.9 0.00 0.00 0.00 51 1011.5
20260503054549 8 196 9.7 19.3 0.00 0.00 0.00 50 1011.5
20260503054045 8 161 12.9 19.3 0.00 0.00 0.00 50 1011.6
20260503053545 9 189 12.9 24.1 0.00 0.00 0.00 49 1011.6
20260503053052 9 179 11.3 24.1 0.00 0.00 0.00 50 1011.6
20260503052545 9 191 11.3 20.9 0.00 0.00 0.00 49 1011.6
20260503052046 9 178 12.9 20.9 0.00 0.00 0.00 48 1011.7
20260503051557 9 207 9.7 19.3 0.00 0.00 0.00 49 1011.7
20260503051045 9 178 11.3 19.3 0.00 0.00 0.00 48 1011.8
20260503050550 10 198 11.3 22.5 0.00 0.00 0.00 48 1011.9
20260503050053 10 188 12.9 22.5 0.00 0.00 0.00 47 1011.8
20260503045545 10 178 11.3 22.5 0.00 0.00 0.00 47 1011.9
20260503045045 10 192 12.9 22.5 0.00 0.00 0.00 47 1011.9
20260503044602 10 182 11.3 20.9 0.00 0.00 0.00 47 1011.9
20260503044045 10 187 11.3 20.9 0.00 0.00 0.00 48 1012.0
20260503043546 9 161 11.3 17.7 0.00 0.00 0.00 47 1012.1
20260503043055 9 190 11.3 16.1 0.00 0.00 0.00 47 1012.1
20260503042546 9 169 11.3 16.1 0.00 0.00 0.00 47 1012.2
20260503042046 9 184 11.3 16.1 0.00 0.00 0.00 47 1012.3
20260503041555 9 186 9.7 17.7 0.00 0.00 0.00 48 1012.4
20260503041045 9 191 9.7 17.7 0.00 0.00 0.00 47 1012.4
20260503040544 9 213 9.7 16.1 0.00 0.00 0.00 47 1012.5